This is the latest recevied weather packets stored in our database for station/object W2EH. If no packets are shown the sender has not sent any weather packets the latest 10 day(s).
| Time | Temp. | Humidity | Pressure | Rain* | Wind** | Luminosity | Snow |
|---|---|---|---|---|---|---|---|
| 1777933088 | 27.22° C | 58% | 1007.9 hPa | 0 mm | - | 117 W/m² | - |
| 1777932784 | 27.78° C | 56% | 1008.2 hPa | 0 mm | - | 271 W/m² | - |
| 1777932481 | 28.33° C | 55% | 1008.2 hPa | 0 mm | - | 242 W/m² | - |
| 1777932178 | 27.78° C | 56% | 1008 hPa | 0 mm | - | 556 W/m² | - |
| 1777931875 | 27.78° C | 57% | 1007.8 hPa | 0 mm | - | 559 W/m² | - |
| 1777931572 | 27.78° C | 57% | 1008.1 hPa | 0 mm | - | 475 W/m² | - |
| 1777931267 | 27.78° C | 55% | 1008.2 hPa | 0 mm | - | 555 W/m² | - |
| 1777930964 | 27.78° C | 56% | 1008.4 hPa | 0 mm | - | 596 W/m² | - |
| 1777930661 | 27.78° C | 56% | 1008.2 hPa | 0 mm | - | 620 W/m² | - |
| 1777930357 | 27.78° C | 57% | 1008.5 hPa | 0 mm | - | 617 W/m² | - |
| 1777930055 | 27.78° C | 57% | 1008.3 hPa | 0 mm | - | 645 W/m² | - |
| 1777929751 | 27.78° C | 55% | 1008.7 hPa | 0 mm | - | 588 W/m² | - |
| 1777929449 | 27.78° C | 55% | 1008.8 hPa | 0 mm | - | 590 W/m² | - |
| 1777929144 | 27.78° C | 56% | 1008.7 hPa | 0 mm | - | 698 W/m² | - |
| 1777928843 | 27.78° C | 57% | 1009.1 hPa | 0 mm | - | 699 W/m² | - |
| 1777928539 | 27.78° C | 57% | 1009.2 hPa | 0 mm | - | 731 W/m² | - |
| 1777928236 | 27.78° C | 57% | 1009 hPa | 0 mm | - | 644 W/m² | - |
| 1777927934 | 26.67° C | 57% | 1009.4 hPa | 0 mm | - | 658 W/m² | - |
| 1777927632 | 27.22° C | 56% | 1009.4 hPa | 0 mm | - | 423 W/m² | - |
| 1777927330 | 27.78° C | 57% | 1009.3 hPa | 0 mm | - | 601 W/m² | - |
| 1777927029 | 27.22° C | 57% | 1009.7 hPa | 0 mm | - | 733 W/m² | - |
| 1777926726 | 26.67° C | 58% | 1009.5 hPa | 0 mm | - | 692 W/m² | - |
| 1777926426 | 26.67° C | 57% | 1009.7 hPa | 0 mm | - | 213 W/m² | - |
| 1777926123 | 27.22° C | 56% | 1009.9 hPa | 0 mm | - | 616 W/m² | - |
| 1777925820 | 26.67° C | 58% | 1009.7 hPa | 0 mm | - | 566 W/m² | - |
* Rain latest hour (hover to see other rain measurements)
** Current wind speed in m/s (hover to see current wind gust speed)